Location: Great Falls
(47.5000°N, 111.3000°W)
Time: 02:31:31
(UTC-06:00)

Tiangong 2 - Visible Passes

Search period start: 22 October 2018 00:00
Search period end: 01 November 2018 00:00
Orbit: 384 x 392 km, 42.8° (Epoch: 22 October)

Date Brightness Start Highest point End Pass type
(mag) Time Alt. Az. Time Alt. Az. Time Alt. Az.
28 Oct 4.1 20:32:29 10° SSW 20:32:31 10° SSW 20:32:31 10° SSW visible
29 Oct 3.3 19:34:56 10° S 19:36:38 14° SSE 19:36:58 14° SSE visible
30 Oct 3.1 20:11:56 10° SW 20:13:38 21° SSW 20:13:38 21° SSW visible
31 Oct 3.0 19:13:59 10° SSW 19:16:23 20° SSE 19:17:57 14° ESE visible
31 Oct 4.2 20:49:49 10° WSW 20:50:15 13° WSW 20:50:15 13° WSW visible
